This demonstration page uses our WeatherBlox Daily Observations layout. Learn more.

Left ArrowRight Arrow

39.01783, -85.05884

Hourly Observations for September 1, 2017

Temp ( °F °C ) Dew Point ( °F °C ) Humidity (%) Winds ( mph kmh ) Pressure ( in mb ) Visibility ( mi km ) Precip ( " mm )
12:52 am 00:52 Cloudy 66 18.9 56 13.3 70 70 NE 22 35 30.01 1016 10 16 0.00 0.00
1:52 am 01:52 Cloudy 65 18.3 54 12.2 68 68 NE 17 28 30.02 1017 10 16 0.00 0.00
2:52 am 02:52 Cloudy 64 17.8 54 12.2 70 70 ENE 21 33 30.00 1016 10 16 0.00 0.00
3:52 am 03:52 Cloudy 63 17.2 52 11.1 68 68 ENE 24 39 29.99 1016 10 16 0.00 0.00
4:52 am 04:52 Cloudy 63 17.2 51 10.6 65 65 ENE 17 28 29.97 1015 10 16 0.00 0.00
5:52 am 05:52 Cloudy 63 17.2 50 10 63 63 ENE 22 35 29.97 1015 10 16 0.00 0.00
6:52 am 06:52 Cloudy with Light Rain 63 17.2 51 10.6 65 65 ENE 24 39 29.97 1015 10 16 0.00 0.03
7:52 am 07:52 Cloudy with Light Rain 60 15.6 52 11.1 75 75 ENE 21 33 29.97 1015 8 13 0.00 0.03
8:52 am 08:52 Cloudy with Light Rain 59 15 54 12.2 83 83 ENE 16 26 29.98 1015 7 11 0.02 0.51
9:52 am 09:52 Cloudy with Light Rain 57 13.9 55 12.8 93 93 ENE 18 30 29.98 1015 6 10 0.04 1.02
10:52 am 10:52 Cloudy with Light Rain 57 13.9 54 12.2 90 90 ENE 23 37 30.00 1016 7 11 0.03 0.76
11:52 am 11:52 Cloudy with Light Rain 56 13.3 54 12.2 93 93 NE 23 37 29.98 1015 5 8 0.03 0.76
12:52 pm 12:52 Cloudy with Light Rain 56 13.3 54 12.2 93 93 NE 23 37 29.95 1014 8 13 0.03 0.76
1:52 pm 13:52 Cloudy with Light Rain 56 13.3 55 12.8 97 97 NE 24 39 29.96 1014 4 6 0.05 1.27
2:01 pm 14:01 Cloudy with Light Rain 56 13.3 55 12.8 97 97 NE 20 31 29.97 1015 5 8 0.01 0.25
2:16 pm 14:16 Cloudy with Rain 56 13.3 54 12.2 93 93 NE 21 33 29.97 1015 3 4 0.04 1.02
2:26 pm 14:26 Cloudy with Light Rain 56 13.3 54 12.2 93 93 NE 23 37 29.97 1015 4 6 0.05 1.27
2:52 pm 14:52 Cloudy 56 13.3 54 12.2 93 93 NE 23 37 29.94 1014 9 14 0.06 1.52
3:13 pm 15:13 Cloudy with Heavy Rain 55 12.8 54 12.2 96 96 NE 17 28 29.97 1015 2 3 0.01 0.25
3:38 pm 15:38 Cloudy with Light Rain 55 12.8 54 12.2 96 96 NE 17 28 29.94 1014 4 6 0.09 2.29
3:52 pm 15:52 Cloudy with Light Rain 55 12.8 54 12.2 96 96 NE 25 41 29.93 1013 4 6 0.09 2.29
4:25 pm 16:25 Cloudy with Light Rain 56 13.3 54 12.2 93 93 NE 20 31 29.94 1014 10 16 0.00 0.03
4:52 pm 16:52 Cloudy with Rain 55 12.8 54 12.2 96 96 NE 23 37 29.94 1014 3 5 0.02 0.51
5:25 pm 17:25 Cloudy with Rain 55 12.8 53 11.7 93 93 NNE 17 28 29.94 1014 2 3 0.06 1.52
5:37 pm 17:37 Cloudy with Rain 54 12.2 53 11.7 97 97 NNE 16 26 29.97 1015 4 6 0.08 2.03
5:52 pm 17:52 Cloudy with Rain 54 12.2 53 11.7 97 97 NE 17 28 29.95 1014 2 3 0.12 3.05
6:04 pm 18:04 Cloudy with Heavy Rain 54 12.2 53 11.7 97 97 NNE 17 28 29.97 1015 2 2 0.08 2.03
6:32 pm 18:32 Cloudy with Heavy Rain 54 12.2 54 12.2 100 100 NNE 18 30 29.97 1015 3 4 0.21 5.33
6:52 pm 18:52 Cloudy with Rain 54 12.2 54 12.2 100 100 NNE 18 30 29.93 1014 3 4 0.28 7.11
7:05 pm 19:05 Cloudy with Rain 54 12.2 53 11.7 97 97 NNE 21 33 29.94 1014 4 6 0.01 0.25
7:41 pm 19:41 Cloudy with Light Rain 54 12.2 54 12.2 100 100 NNE 21 33 29.94 1014 5 8 0.05 1.27
7:52 pm 19:52 Cloudy with Rain 54 12.2 54 12.2 100 100 NE 21 33 29.93 1014 4 6 0.06 1.52
8:19 pm 20:19 Cloudy with Rain 54 12.2 53 11.7 97 97 NE 23 37 29.94 1014 5 8 0.05 1.27
8:52 pm 20:52 Cloudy with Rain 54 12.2 53 11.7 97 97 NNE 22 35 29.92 1013 5 8 0.11 2.79
9:52 pm 21:52 Cloudy with Heavy Rain 54 12.2 53 11.7 97 97 NNE 20 31 29.92 1013 3 5 0.11 2.79
10:21 pm 22:21 Cloudy with Heavy Rain 54 12.2 53 11.7 97 97 NE 20 31 29.94 1014 3 4 0.10 2.54
10:52 pm 22:52 Cloudy with Heavy Rain 54 12.2 54 12.2 100 100 NE 18 30 29.93 1013 3 4 0.35 8.89
10:59 pm 22:59 Cloudy with Heavy Rain 54 12.2 54 12.2 100 100 NE 18 30 29.94 1014 3 4 0.04 1.02
11:14 pm 23:14 Cloudy with Rain 54 12.2 54 12.2 100 100 NE 17 28 29.94 1014 3 4 0.09 2.29
11:39 pm 23:39 Cloudy with Light Rain 54 12.2 54 12.2 100 100 NE 21 33 29.94 1014 7 11 0.15 3.81
11:52 pm 23:52 Cloudy with Light Rain 54 12.2 54 12.2 100 100 NE 21 33 29.91 1013 7 11 0.15 3.81

Powered by AerisWeather